FLOCK 3P-80 (42026 NORAD) Tracking and Keplerian Element Data

This shows tracking and keplerian element data for the satellite.

Feedback or suggestion? Click here.




ElementValue
Catalog42026
NameFLOCK 3P-80
Epoch Orbit31067
Epoch Day270.0958442
Epoch Year2022
RAAN336.1284
Inclination97.2702
Eccentricity0.0005039
Argument of Perigee225.7844
Mean Anonmoly134.2989
Mean Motion15.39279681
Decay Rate0.00056824
L11 42026U 17008CG 22270.09584420 .00056824 00000+0 14509-2 0 9990
L22 42026 97.2702 336.1284 0005039 225.7844 134.2989 15.39279681310673

Live tracking and technical data element details for FLOCK 3P-80 (NORAD 42026). FLOCK 3P-80 can be tracked NOW for your location showing map with azimuth and elevation plus other details from your city location.

Track the satellite on the map from your city or location and see movement details for azimuth, elevation, latitude, longitude, range, height, and movement on the map or in text.







IsCatalogInMostPopularTable: catalog: 42026, numindb: 631
Update: records affected: 1



GetName: 42026 FLOCK 3P-80

Hit Count: updated at: Wed, 28 Sep 2022 22:59:12 GMT